Terminal Aerodrome Forecast
Issued by NWS Raleigh/Durham, NC

Home | Current Version | Previous Version | Text Only | Print | Product List | Glossary On
Versions: 1 2 3 4 5 6 7 8 9 10 11 12 13 14 15 16 17 18 19 20 21 22 23 24 25 26 27 28 29 30 31 32 33 34 35 36 37 38 39 40 41 42 43 44
000
FTUS42 KRAH 300525
TAFFAY
TAF
KFAY 300525Z 3006/0106 20005KT P6SM SCT008
     FM300800 VRB03KT P6SM OVC008
     FM301400 20007KT P6SM BKN015
     FM301800 20009KT P6SM SCT030
     FM302000 19011G20KT P6SM SCT035
     FM010100 17008KT P6SM FEW250=

USA.gov is the U.S. government's official web portal to all federal, state and local government web resources and services.